Regional Weather Roundup
Issued by NWS Newport/Morehead, NC

Home | Current Version | Previous Version | Text Only | Print | Product List | Glossary On
Versions: 1 2 3 4 5 6 7 8 9 10 11 12 13 14 15 16 17 18 19 20 21 22 23 24 25 26 27 28 29 30 31 32 33 34 35 36 37 38 39 40 41 42 43 44 45 46 47 48 49 50
000
ASUS42 KMHX 141325
RWRMHX
WEATHER ROUNDUP FOR EASTERN NORTH CAROLINA
NATIONAL WEATHER SERVICE NEWPORT/MOREHEAD CITY NC
800 AM EST THU DEC 14 2017

NOTE: "FAIR" INDICATES FEW OR NO CLOUDS BELOW 12,000 FEET
WITH NO SIGNIFICANT WEATHER AND/OR OBSTRUCTIONS TO VISIBILITY

NCZ015>017-031-032-045>047-102-103-141400-
NORTH COAST

CITY           SKY/WX    TMP DP  RH WIND       PRES   REMARKS
EDENTON        CLEAR     42  28  57 W13       29.78R
ELIZABETH CITY CLEAR     40  27  59 SW12      29.76R
KITTY HAWK     SUNNY     41  25  52 SW9G22    29.75R
MANTEO         CLEAR     42  26  53 W15       29.77R

$$

NCZ045>047-081-094-103-104-141400-
CENTRAL COAST

CITY           SKY/WX    TMP DP  RH WIND       PRES   REMARKS
FRISCO         CLEAR     47  30  51 W13G23    29.80R

$$

NCZ095-097-098-100-101-141400-
SOUTHERN COAST

CITY           SKY/WX    TMP DP  RH WIND       PRES   REMARKS
BEAUFORT       CLEAR     46  28  49 W16G25    29.83R
CEDAR ISLAND   NOT AVBL
JACKSONVILLE   CLEAR     40  26  57 W10       29.83R
PINEY ISLAND     N/A    N/A N/A N/A W15G22    29.81R
WILMINGTON     CLEAR     43  27  53 W10       29.85R


$$

NCZ011>013-027>030-043-044-078>080-089-090>093-098-141400-
COASTAL PLAIN

CITY           SKY/WX    TMP DP  RH WIND       PRES   REMARKS
AHOSKIE        CLEAR     33  24  69 CALM      29.78R
CLINTON        CLEAR     37  26  64 SW5       29.83R
ELIZABETHTOWN  NOT AVBL
GOLDSBORO      CLEAR     38  23  54 SW7       29.79R
GREENVILLE     CLEAR     37  23  56 SW7       29.82R
HAVELOCK       CLEAR     43  26  51 SW12      29.83R
KENANSVILLE    CLEAR     37  25  60 SW10      29.82R
KINSTON        CLEAR     39  23  52 SW9       29.81R
NEW BERN       CLEAR     41  25  53 SW13      29.82R
RICHLANDS      CLEAR     39  26  59 SW9       29.83R
ROCKY MOUNT    CLEAR     35  24  64 SW8       29.78R
WASHINGTON     CLEAR     38  24  56 SW7       29.80R
WHITEVILLE     CLEAR     41  26  54 SW6       29.85R

$$

AMZ130-135-150-152-154-156-158-170-250-252-270-ANZ085-086-088-633-658-670-141400-
MARINE OBSERVATIONS

STATION/POSITION TIME  TEMP    WIND        PRES    WAVE   SWELL
                       AIR SEA DIR/SP/G            HT/PER HT/PER
                 (UTC) (F)     (DEG/KT/KT) (MB)    (FT/S) (FT/S)
CHESAPEAKE LIGHT NOT AVBL
64 E VA BEACH    1250   51 60  250/ 27/ 31 1005.3    8/ 6
DUCK             1300   42 52  250/ 19/ 24 1007.1
2 E DUCK         1300      55                N/A     2/ 3
OREGON INLET     1300   42 41  240/ 16/ 22 1008.0
13E OREGON INLT  1248      58                N/A     5/ 4   2/ 7
HATTERAS CG      1300   47 50  260/ 20/ 25 1008.7
DIAMOND BUOY     1300   57 74  260/ 25/ 31 1009.0
CAPE LOOKOUT     1300          270/ 21/ 24 1010.3
BEAUFORT LAB     1300   46 51  260/ 10/ 19 1010.0
30 SE NEW RVR IN 1308   54 64  250/ 17/ 23 1010.2
30 SE NEW RVR IN 1300      63                N/A    10/ 8
27 SE WRIGHTSVLE 1308   53 65  250/ 21/ 31 1011.0
5 SE WRIGHTSVLE  1308   49 56  270/ 16/ 21 1010.2
225 S CAPE HAT   1250   69 74  250/ 25/ 29 1012.0    8/ 7   2/16
41 SE CHARLESTON 1300      73  270/ 21/ 29 1012.8

$$




USA.gov is the U.S. government's official web portal to all federal, state and local government web resources and services.